Home   Weather   Green Bay   Past weeks

Flag for USA Past Weather in Green Bay, Wisconsin, USA — Yesterday and Last 2 Weeks

Now
40 °F

Low clouds.


Feels Like: 30 °F
Forecast: 39 / 51 °F
Wind: 21 mph from Northeast

Location: Austin Straubel International Airport

Current Time: Apr 30, 2017 at 7:49:59 pm

Latest Report: Apr 30, 2017 at 6:53 pm


Visibility: 10 mi

Pressure: 29.90 "Hg

Humidity: 93%

Dew Point: 38 °F

Location of Green BayLocation

Past Weather in Green Bay — Graph

°F

Green Bay Temperature Yesterday

Maximum temperature yesterday: 48 °F (at 2:53 pm)
Minimum temperature yesterday: 35 °F (at 5:53 am)
Average temperature yesterday: 43 °F

High & Low Weather Summary for the Past Weeks

 TemperatureHumidityPressure
High72 °F (Apr 15, 5:53 pm)100% (Apr 15, 11:53 pm)30.33 "Hg (Apr 15, 11:53 pm)
Low34 °F (Apr 22, 5:53 am)32% (Apr 22, 2:53 pm)29.30 "Hg (Apr 27, 6:00 am)
Average49 °F77%29.91 "Hg
* Reported Apr 15 5:53 pm — Apr 30 5:53 pm, Green Bay, Weather by CustomWeather, © 2017

Note: Actual official high and low records may vary slightly from our data, if they occured in-between our weather recording intervals... More about our weather records

Advertising

Green Bay Weather History for the Previous 24 Hours

Scroll right to see more
 ConditionsComfort  
Time TempWeatherWind HumidityBarometerVisibility
5:53 pm
Sun, Apr 30
40 °FLow clouds.16 mph93%29.93 "Hg10 mi
4:53 pm40 °FLow clouds.18 mph93%29.93 "Hg10 mi
4:21 pm40 °FLow clouds.18 mph93%29.92 "Hg10 mi
3:53 pm40 °FOvercast.18 mph93%29.93 "Hg10 mi
3:04 pm40 °FMostly cloudy.21 mph97%29.95 "Hg10 mi
1:53 pm41 °FFog.22 mph96%29.98 "Hg5 mi
1:19 pm40 °FLight rain. Fog.21 mph100%29.98 "Hg3 mi
12:53 pm41 °FLight rain. Fog.20 mph96%30.02 "Hg2 mi
12:16 pm41 °FLight rain. Fog.17 mph96%30.03 "Hg2 mi
11:53 am41 °FFog.21 mph96%30.03 "Hg4 mi
11:11 am41 °FFog.21 mph96%30.00 "Hg3 mi
10:53 am41 °FFog.20 mph100%30.03 "Hg2 mi
9:53 am41 °FFog.21 mph93%30.03 "Hg3 mi
8:53 am41 °FFog.14 mph96%30.06 "Hg4 mi
8:03 am41 °FFog.18 mph96%30.04 "Hg3 mi
7:42 am41 °FFog.23 mph96%30.06 "Hg2 mi
7:32 am41 °FLight rain. Fog.17 mph96%30.07 "Hg2 mi
6:53 am41 °FOvercast.17 mph93%30.11 "Hg10 mi
6:42 am41 °FMostly cloudy.18 mph89%30.10 "Hg10 mi
5:53 am40 °FOvercast.18 mph89%30.11 "Hg10 mi
4:53 am41 °FLight rain. Overcast.16 mph80%30.14 "Hg10 mi
3:53 am41 °FMostly cloudy.17 mph86%30.14 "Hg10 mi
2:53 am41 °FMostly cloudy.16 mph82%30.19 "Hg10 mi
2:27 am41 °FLight rain. Overcast.14 mph86%30.19 "Hg10 mi
2:03 am41 °FLight rain. Fog.10 mph86%30.20 "Hg4 mi
12:53 am42 °FOvercast.23 mph73%30.17 "Hg10 mi
11:53 pm
Sat, Apr 29
43 °FOvercast.28 mph71%30.18 "Hg10 mi
10:53 pm44 °FOvercast.23 mph73%30.19 "Hg10 mi
9:53 pm45 °FOvercast.20 mph56%30.23 "Hg10 mi
8:53 pm46 °FPassing clouds.16 mph50%30.24 "Hg10 mi
7:53 pm46 °FSunny.12 mph54%30.26 "Hg10 mi
Weather by CustomWeather, © 2017

See weather overviewHow to use our weather pages